Regional Weather Roundup
Issued by NWS Cleveland, OH

Home | Current Version | Previous Version | Text Only | Print | Product List | Glossary Off
Versions: 1 2 3 4 5 6 7 8 9 10 11 12 13 14 15 16 17 18 19 20 21 22 23 24 25 26 27 28 29 30 31 32 33 34 35 36 37 38 39 40 41 42 43 44 45 46 47 48 49 50

000
ASUS41 KCLE 251902
RWRCLE
OHIO REGIONAL WEATHER ROUNDUP
NATIONAL WEATHER SERVICE CLEVELAND, OH
300 PM EDT MON JUL 25 2016

NOTE: "FAIR" INDICATES FEW OR NO CLOUDS BELOW 12,000 FEET WITH NO
SIGNIFICANT WEATHER AND/OR OBSTRUCTIONS TO VISIBILITY.

OHZ001>008-015>018-024>027-034-035-043-044-252000-
   NORTHWEST OHIO

CITY           SKY/WX    TMP DP  RH WIND       PRES   REMARKS
DEFIANCE       CLOUDY    87  69  54 VRB7      29.97F HX  91
FINDLAY        MOSUNNY   88  66  48 SW10      29.97F HX  90
TOLEDO EXPRESS CLOUDY    85  73  67 W12       29.96S HX  91
TOLEDO EXEC    PTSUNNY   87  71  58 W14       29.96S HX  93
LIMA           MOSUNNY   85  68  56 SW8       30.00F
$$

OHZ009>014-019>023-028>033-038-089-252000-
   NORTHEAST OHIO

CITY           SKY/WX    TMP DP  RH WIND       PRES   REMARKS
CLE-HOPKINS    CLOUDY    88  69  53 SW10      29.96F HX  92
CLE-LAKEFRONT  PTSUNNY   83  72  69 W10       29.93F
CUY CO. ARPT   PTSUNNY   84  72  65 W15       29.96S
LORAIN-ELYRIA  CLOUDY    83  71  67 W8        29.96F
ASHTABULA      CLOUDY    82  75  79 W8        29.95S
AKRON-CANTON   PTSUNNY   89  66  46 NW16G25   29.97F HX  91
WOOSTER        MOSUNNY   87  67  51 W15       29.98F HX  90
MANSFIELD      CLOUDY    84  64  50 SW9       30.01F
YOUNGSTOWN     CLOUDY    87  69  54 W13G24    29.95F HX  91
$$

OHZ042-051>053-060>062-070>072-077>081-252000-
  SOUTHWEST OHIO

CITY           SKY/WX    TMP DP  RH WIND       PRES   REMARKS
CINC-COVINGTON PTSUNNY   90  72  55 W10       29.99F HX  97
CINC-LUNKEN    PTSUNNY   93  72  50 W9        29.96F HX 101
HAMILTON       MOSUNNY   93  70  46 NW9       29.99F HX  99
DAYTON         PTSUNNY   88  68  51 NW12      30.01F HX  91
WRIGHT-PAT AFB SUNNY     89  69  50 W9        29.98F HX  94
DAYTON GENERAL CLOUDY    90  68  48 N7        29.99F HX  94
WILMINGTON     MOSUNNY   90  72  55 NW9       29.99F HX  97
$$

OHZ036-037-039>041-045>050-054>059-063>069-073>076-082>088-252000-
  CENTRAL AND SOUTHEAST OHIO

CITY           SKY/WX    TMP DP  RH WIND       PRES   REMARKS
COLUMBUS       PTSUNNY   92  69  47 NW14      29.96F HX  97
OSU AIRPORT    MOSUNNY   89  70  53 W13       29.98F HX  94
BOLTON FIELD   SUNNY    N/A N/A N/A NW9       29.99F
RICKENBACK AFB SUNNY     91  69  48 W10G16    29.96F HX  96
NEWARK         MOSUNNY   93  71  48 NW7       29.96F HX 100
MARION         CLOUDY    86  64  47 VRB6      30.00F
LANCASTER      MOSUNNY   90  72  55 VRB7      29.98F HX  97
ZANESVILLE     PTSUNNY   96  71  44 W8        29.96F HX 103
NEW PHILLY     SUNNY     95  69  42 W9G18     29.96S HX 100
$$




USA.gov is the U.S. government's official web portal to all federal, state and local government web resources and services.